CW2857 Weather Reports


time (UTC)temp
F
wind
direction
speed
knots
gust
knots
rain 1hr
in
rain 24hr
in
rain mn
in
humidity
%
barometer
mb
20240418161606 49 82 0.9 5.2 0.00 0.00 0.00 26 1016.0
20240418161055 49 102 1.7 6.1 0.00 0.00 0.00 26 1015.9
20240418160553 48 62 0.9 3.5 0.00 0.00 0.00 27 1016.0
20240418160054 48 105 0.0 5.2 0.00 0.00 0.00 27 1016.1
20240418155553 48 69 1.7 5.2 0.00 0.00 0.00 27 1016.2
20240418155052 48 81 0.9 4.3 0.00 0.00 0.00 28 1016.1
20240418154557 46 42 2.6 4.3 0.00 0.00 0.00 27 1016.2
20240418154050 45 139 1.7 3.5 0.00 0.00 0.00 28 1016.1
20240418153550 46 109 0.9 3.5 0.00 0.00 0.00 30 1016.1
20240418153050 45 136 0.9 3.5 0.00 0.00 0.00 30 1016.1
20240418152550 45 151 0.9 3.5 0.00 0.00 0.00 30 1016.1
20240418152050 45 124 0.0 3.5 0.00 0.00 0.00 30 1016.1
20240418151549 45 332 0.0 1.7 0.00 0.00 0.00 30 1016.1
20240418151048 44 332 0.0 1.7 0.00 0.00 0.00 31 1016.1
20240418150548 43 329 0.0 1.7 0.00 0.00 0.00 32 1016.1
20240418150049 43 325 0.0 1.7 0.00 0.00 0.00 32 1016.2
20240418145548 43 327 0.0 1.7 0.00 0.00 0.00 33 1016.1
20240418145047 42 321 0.0 1.7 0.00 0.00 0.00 34 1016.2
20240418144548 41 287 0.9 1.7 0.00 0.00 0.00 36 1016.1
20240418144047 40 287 0.0 2.6 0.00 0.00 0.00 37 1016.2
20240418143546 40 287 0.0 2.6 0.00 0.00 0.00 38 1016.2
20240418143050 40 287 0.0 1.7 0.00 0.00 0.00 38 1016.1
20240418142549 39 273 0.9 1.7 0.00 0.00 0.00 39 1016.2
20240418142045 39 267 0.0 1.7 0.00 0.00 0.00 40 1016.1
20240418141545 39 267 0.0 1.7 0.00 0.00 0.00 41 1016.1
20240418141046 38 267 0.0 2.6 0.00 0.00 0.00 42 1016.0
20240418140543 38 267 0.0 2.6 0.00 0.00 0.00 42 1016.0
20240418140047 38 267 0.0 2.6 0.00 0.00 0.00 42 1016.0
20240418135544 38 276 0.0 3.5 0.00 0.00 0.00 42 1015.8
20240418135046 38 276 0.9 3.5 0.00 0.00 0.00 41 1015.9
20240418134542 38 279 1.7 5.2 0.00 0.00 0.00 41 1015.8
20240418134042 37 271 1.7 5.2 0.00 0.00 0.00 40 1015.8
20240418133542 37 297 2.6 4.3 0.00 0.00 0.00 41 1015.7
20240418133042 37 254 1.7 6.1 0.00 0.00 0.00 41 1015.6
20240418132539 36 261 3.5 6.1 0.00 0.00 0.00 42 1015.5
20240418132038 35 279 2.6 4.3 0.00 0.00 0.00 45 1015.4
20240418131546 35 248 1.7 3.5 0.00 0.00 0.00 47 1015.4
20240418131040 36 237 1.7 2.6 0.00 0.00 0.00 45 1015.4
20240418130539 36 221 0.9 3.5 0.00 0.00 0.00 45 1015.3
20240418130045 36 216 1.7 3.5 0.00 0.00 0.00 43 1015.4
20240418125538 36 234 0.9 2.6 0.00 0.00 0.00 44 1015.4
20240418125037 36 244 0.9 3.5 0.00 0.00 0.00 45 1015.4
20240418124554 37 254 1.7 4.3 0.00 0.00 0.00 45 1015.4
20240418124037 37 257 2.6 5.2 0.00 0.00 0.00 44 1015.3
20240418123537 36 261 1.7 4.3 0.00 0.00 0.00 45 1015.3
20240418123043 36 264 1.7 4.3 0.00 0.00 0.00 47 1015.3
20240418122534 35 252 2.6 4.3 0.00 0.00 0.00 49 1015.4
20240418122034 35 240 1.7 3.5 0.00 0.00 0.00 49 1015.4
20240418121536 35 240 1.7 3.5 0.00 0.00 0.00 48 1015.3
20240418121033 35 214 0.9 2.6 0.00 0.00 0.00 48 1015.3
20240418120532 36 211 0.9 2.6 0.00 0.00 0.00 46 1015.3
20240418120109 36 211 0.9 1.7 0.00 0.00 0.00 45 1015.3
20240418115536 37 211 0.9 2.6 0.00 0.00 0.00 44 1015.3
20240418115028 38 211 0.9 2.6 0.00 0.00 0.00 42 1015.3
20240418114534 38 211 1.7 2.6 0.00 0.00 0.00 42 1015.3
20240418114028 38 235 1.7 2.6 0.00 0.00 0.00 41 1015.3
20240418113528 39 219 0.9 1.7 0.00 0.00 0.00 41 1015.3
20240418113036 39 219 0.0 2.6 0.00 0.00 0.00 38 1015.3
20240418112526 39 219 0.9 4.3 0.00 0.00 0.00 40 1015.3
20240418112127 39 228 0.9 4.3 0.00 0.00 0.00 39 1015.4
20240418111542 39 164 0.9 2.6 0.00 0.00 0.00 39 1015.3
20240418111025 39 170 0.9 4.3 0.00 0.00 0.00 40 1015.3
20240418110525 40 140 0.9 4.3 0.00 0.00 0.00 40 1015.3
20240418110025 39 195 0.9 3.5 0.00 0.00 0.00 42 1015.2
20240418105524 39 188 0.9 3.5 0.00 0.00 0.00 42 1015.3
20240418105023 38 196 0.9 3.5 0.00 0.00 0.00 45 1015.2
20240418104523 38 182 2.6 3.5 0.00 0.00 0.00 44 1015.1
20240418104022 38 214 1.7 2.6 0.00 0.00 0.00 44 1015.1
20240418103520 38 240 0.9 1.7 0.00 0.00 0.00 45 1015.1
20240418103020 39 240 0.9 2.6 0.00 0.00 0.00 44 1015.1
20240418102523 39 240 0.9 2.6 0.00 0.00 0.00 44 1015.1
20240418102019 39 250 0.9 2.6 0.00 0.00 0.00 44 1015.0
20240418101534 39 289 0.9 1.7 0.00 0.00 0.00 44 1014.9
20240418101016 39 289 0.9 1.7 0.00 0.00 0.00 44 1015.0
20240418100516 40 289 0.0 1.7 0.00 0.00 0.00 43 1014.9
20240418100014 40 289 0.0 1.7 0.00 0.00 0.00 42 1014.9
20240418095513 41 289 0.0 1.7 0.00 0.00 0.00 40 1014.9
20240418095015 41 289 0.0 1.7 0.00 0.00 0.00 39 1015.0
20240418094511 41 289 0.9 4.3 0.00 0.00 0.00 38 1015.0
20240418094010 42 292 1.7 6.1 0.00 0.00 0.00 37 1014.9
20240418093509 41 271 3.5 6.1 0.00 0.00 0.00 38 1014.9
20240418093010 41 257 1.7 6.1 0.00 0.00 0.00 39 1014.8
20240418092508 42 254 2.6 6.1 0.00 0.00 0.00 39 1014.8
20240418092109 42 234 0.9 3.5 0.00 0.00 0.00 39 1014.7
20240418091508 42 184 1.7 3.5 0.00 0.00 0.00 38 1014.7
20240418091007 42 205 0.9 2.6 0.00 0.00 0.00 38 1014.7
20240418090507 42 205 0.9 2.6 0.00 0.00 0.00 40 1014.6
20240418090005 42 204 1.7 3.5 0.00 0.00 0.00 40 1014.5
20240418085510 42 206 1.7 2.6 0.00 0.00 0.00 40 1014.6
20240418085005 42 216 0.0 2.6 0.00 0.00 0.00 39 1014.6
20240418084505 42 216 0.9 2.6 0.00 0.00 0.00 42 1014.8
20240418084004 42 216 0.9 1.7 0.00 0.00 0.00 41 1014.7
20240418083502 43 216 0.0 2.6 0.00 0.00 0.00 40 1014.9
20240418083002 43 216 0.9 2.6 0.00 0.00 0.00 40 1014.9
20240418082501 43 253 0.0 1.7 0.00 0.00 0.00 40 1015.0
20240418082102 43 253 0.9 2.6 0.00 0.00 0.00 40 1015.0
20240418081605 44 253 0.0 2.6 0.00 0.00 0.00 38 1014.9
20240418081058 44 253 0.9 1.7 0.00 0.00 0.00 38 1014.9
20240418080559 44 253 0.9 1.7 0.00 0.00 0.00 38 1014.9
20240418080056 44 265 0.9 2.6 0.00 0.00 0.00 38 1014.8
20240418075555 45 265 1.7 2.6 0.00 0.00 0.00 37 1014.9
20240418075054 46 265 0.0 2.6 0.00 0.00 0.00 35 1014.9
20240418074553 46 277 0.9 4.3 0.00 0.00 0.00 34 1014.7
20240418074052 46 287 1.7 4.3 0.00 0.00 0.00 34 1014.7
20240418073552 46 261 2.6 5.2 0.00 0.00 0.00 35 1014.6
20240418073139 46 265 0.9 5.2 0.00 0.00 0.00 34 1014.5
20240418072551 47 247 1.7 8.7 0.00 0.00 0.00 34 1014.5
20240418072051 46 231 3.5 8.7 0.00 0.00 0.00 35 1014.5
20240418071550 47 236 2.6 4.3 0.00 0.00 0.00 35 1014.5
20240418071052 47 196 2.6 5.2 0.00 0.00 0.00 33 1014.4
20240418070548 47 220 2.6 5.2 0.00 0.00 0.00 34 1014.4
20240418070116 47 196 2.6 5.2 0.00 0.00 0.00 34 1014.4
20240418065546 47 197 2.6 5.2 0.00 0.00 0.00 33 1014.3
20240418065047 47 205 2.6 7.0 0.00 0.00 0.00 32 1014.2
20240418064545 48 163 4.3 8.7 0.00 0.00 0.00 32 1014.1
20240418064045 47 136 3.5 8.7 0.00 0.00 0.00 32 1014.1
20240418063546 47 169 5.2 8.7 0.00 0.00 0.00 34 1014.1
20240418063044 47 171 3.5 7.0 0.00 0.00 0.00 34 1014.2
20240418062547 48 182 2.6 6.1 0.00 0.00 0.00 34 1014.2
20240418062043 48 165 1.7 3.5 0.00 0.00 0.00 34 1014.2
20240418061553 48 162 0.9 2.6 0.00 0.00 0.00 34 1014.2
20240418061042 48 123 0.9 3.5 0.00 0.00 0.00 34 1014.2
20240418060542 48 123 0.9 7.0 0.00 0.00 0.00 34 1014.1
20240418060042 48 79 1.7 7.0 0.00 0.00 0.00 34 1014.1
20240418055543 49 124 2.6 9.6 0.00 0.00 0.00 33 1014.0
20240418055041 49 130 5.2 9.6 0.00 0.00 0.00 33 1014.0
20240418054541 49 178 3.5 6.1 0.00 0.00 0.00 34 1014.0
20240418054039 49 194 2.6 4.3 0.00 0.00 0.00 33 1013.9
20240418053540 50 128 1.7 3.5 0.00 0.00 0.00 32 1013.7
20240418053039 50 78 1.7 4.3 0.00 0.00 0.00 32 1013.7
20240418052540 50 159 2.6 5.2 0.00 0.00 0.00 31 1013.6
20240418052039 51 119 0.9 5.2 0.00 0.00 0.00 31 1013.6
20240418051539 51 79 1.7 7.8 0.00 0.00 0.00 31 1013.6
20240418051038 51 65 2.6 9.6 0.00 0.00 0.00 30 1013.5
20240418050539 52 15 5.2 9.6 0.00 0.00 0.00 30 1013.4
20240418050040 52 57 1.7 12.2 0.00 0.00 0.00 30 1013.3
20240418045539 52 57 2.6 8.7 0.00 0.00 0.00 29 1013.2
20240418045038 53 43 0.9 4.3 0.00 0.00 0.00 27 1013.2
20240418044541 53 71 1.7 4.3 0.00 0.00 0.00 28 1013.0
20240418044037 53 44 0.9 5.2 0.00 0.00 0.00 29 1013.0
20240418043539 53 48 1.7 5.2 0.00 0.00 0.00 29 1012.9
20240418043035 54 56 1.7 4.3 0.00 0.00 0.00 30 1012.8
20240418042535 54 78 1.7 5.2 0.00 0.00 0.00 30 1012.8
20240418042037 55 63 0.9 4.3 0.00 0.00 0.00 29 1012.8
20240418041543 55 16 1.7 6.1 0.00 0.00 0.00 28 1012.6
20240418041034 55 58 1.7 6.1 0.00 0.00 0.00 28 1012.6
20240418040534 56 71 1.7 4.3 0.00 0.00 0.00 28 1012.6
20240418040036 56 19 1.7 5.2 0.00 0.00 0.00 28 1012.4
20240418035534 56 59 1.7 6.1 0.00 0.00 0.00 29 1012.3
20240418035033 56 65 1.7 7.8 0.00 0.00 0.00 29 1012.2
20240418034533 57 30 1.7 7.0 0.00 0.00 0.00 29 1012.2
20240418034032 57 47 3.5 7.8 0.00 0.00 0.00 30 1012.1
20240418033531 57 70 3.5 7.8 0.00 0.00 0.00 31 1012.0
20240418033035 58 350 3.5 7.8 0.00 0.00 0.00 31 1012.0
20240418032532 58 49 1.7 7.8 0.00 0.00 0.00 32 1012.0
20240418032030 58 49 2.6 7.8 0.00 0.00 0.00 34 1011.9
20240418031535 58 38 1.7 7.0 0.00 0.00 0.00 36 1011.9
20240418031029 58 342 0.9 4.3 0.00 0.00 0.00 36 1011.7
20240418030530 59 360 1.7 5.2 0.00 0.00 0.00 35 1011.7
20240418030040 59 355 2.6 5.2 0.00 0.00 0.00 36 1011.6
20240418025533 59 29 0.9 4.3 0.00 0.00 0.00 36 1011.6
20240418025029 59 5 1.7 5.2 0.00 0.00 0.00 35 1011.5
20240418024531 59 321 1.7 7.0 0.00 0.00 0.00 35 1011.4
20240418024029 59 328 2.6 7.0 0.00 0.00 0.00 35 1011.3
20240418023528 59 317 1.7 8.7 0.00 0.00 0.00 35 1011.3
20240418023038 59 334 3.5 8.7 0.00 0.00 0.00 34 1011.2
20240418022527 60 295 3.5 9.6 0.00 0.00 0.00 34 1011.1
20240418022031 60 355 5.2 9.6 0.00 0.00 0.00 34 1011.1
20240418021528 60 325 5.2 9.6 0.00 0.00 0.00 34 1011.0
20240418021028 61 328 3.5 12.2 0.00 0.00 0.00 34 1011.0
20240418020527 61 334 4.3 13.0 0.00 0.00 0.00 34 1010.9
20240418020029 62 290 5.2 10.4 0.00 0.00 0.00 33 1011.0
20240418015528 62 306 4.3 10.4 0.00 0.00 0.00 32 1011.0
20240418015027 63 320 4.3 11.3 0.00 0.00 0.00 31 1010.9
20240418014527 63 304 5.2 11.3 0.00 0.00 0.00 31 1010.9
20240418014025 63 34 3.5 10.4 0.00 0.00 0.00 31 1011.0
20240418013528 63 332 5.2 9.6 0.00 0.00 0.00 30 1010.9
20240418013026 63 341 5.2 9.6 0.00 0.00 0.00 30 1011.0
20240418012525 63 345 3.5 10.4 0.00 0.00 0.00 30 1011.0
20240418012026 64 290 6.1 10.4 0.00 0.00 0.00 29 1011.0
20240418011525 64 322 4.3 10.4 0.00 0.00 0.00 30 1010.9
20240418011025 65 9 5.2 11.3 0.00 0.00 0.00 29 1011.0
20240418010525 64 334 6.1 11.3 0.00 0.00 0.00 29 1011.0
20240418010024 65 331 6.1 10.4 0.00 0.00 0.00 28 1010.9
20240418005524 65 294 5.2 10.4 0.00 0.00 0.00 28 1010.9
20240418005024 64 290 4.3 12.2 0.00 0.00 0.00 28 1010.9
20240418004525 64 319 7.8 12.2 0.00 0.00 0.00 29 1010.9
20240418004023 64 294 5.2 11.3 0.00 0.00 0.00 29 1010.9
20240418003523 65 298 6.1 10.4 0.00 0.00 0.00 27 1010.9
20240418003036 65 321 5.2 10.4 0.00 0.00 0.00 29 1010.8
20240418002523 65 279 5.2 12.2 0.00 0.00 0.00 28 1010.8
20240418002022 65 297 6.1 12.2 0.00 0.00 0.00 28 1010.7
20240418001522 65 275 4.3 11.3 0.00 0.00 0.00 28 1010.7
20240418001022 66 305 7.0 13.0 0.00 0.00 0.00 27 1010.7
20240418000523 66 321 4.3 13.0 0.00 0.00 0.00 27 1010.7
20240418000025 66 345 5.2 10.4 0.00 0.00 0.00 27 1010.6
20240417235521 66 277 6.1 10.4 0.00 0.00 0.00 27 1010.6
20240417235022 67 284 5.2 13.0 0.00 0.00 0.00 28 1010.7
20240417234522 68 323 7.0 13.0 0.00 0.00 0.00 27 1010.7
20240417234021 68 9 4.3 12.2 0.00 0.00 0.00 27 1010.7
20240417233523 67 34 5.2 12.2 0.00 0.00 0.00 27 1010.7
20240417233020 67 327 5.2 13.0 0.00 0.00 0.00 28 1010.7
20240417232520 67 360 5.2 13.0 0.00 0.00 0.00 27 1010.7
20240417232019 67 254 4.3 13.0 0.00 0.00 0.00 28 1010.8
20240417231521 67 323 7.0 13.9 0.00 0.00 0.00 27 1010.8
20240417231020 67 324 8.7 13.9 0.00 0.00 0.00 28 1010.7
20240417230519 67 279 6.1 11.3 0.00 0.00 0.00 27 1010.8
20240417230018 67 284 3.5 11.3 0.00 0.00 0.00 28 1010.8
20240417225522 67 355 6.1 13.0 0.00 0.00 0.00 28 1010.9
20240417225017 67 329 8.7 13.9 0.00 0.00 0.00 28 1011.0
20240417224523 68 5 7.0 13.9 0.00 0.00 0.00 28 1010.9
20240417224016 67 355 6.1 13.0 0.00 0.00 0.00 28 1011.0
20240417223516 67 333 4.3 12.2 0.00 0.00 0.00 27 1011.0
20240417223023 68 342 3.5 12.2 0.00 0.00 0.00 28 1011.1
20240417222514 70 323 4.3 10.4 0.00 0.00 0.00 26 1011.1
20240417222013 69 355 4.3 11.3 0.00 0.00 0.00 26 1011.2
20240417221512 67 331 6.1 11.3 0.00 0.00 0.00 28 1011.3
20240417221011 66 325 6.1 11.3 0.00 0.00 0.00 28 1011.3
20240417220512 66 340 5.2 10.4 0.00 0.00 0.00 28 1011.4
20240417220011 65 279 5.2 14.8 0.00 0.00 0.00 29 1011.4
20240417215611 66 307 7.0 14.8 0.00 0.00 0.00 28 1011.4
20240417215011 68 298 6.1 10.4 0.00 0.00 0.00 27 1011.5
20240417214509 68 336 4.3 10.4 0.00 0.00 0.00 27 1011.6
20240417214008 68 284 6.1 10.4 0.00 0.00 0.00 28 1011.6
20240417213507 67 295 6.1 11.3 0.00 0.00 0.00 27 1011.7
20240417213007 68 293 0.9 11.3 0.00 0.00 0.00 27 1011.7
20240417212507 67 286 2.6 10.4 0.00 0.00 0.00 28 1011.7
20240417212011 67 343 5.2 10.4 0.00 0.00 0.00 27 1011.7
20240417211506 65 263 3.5 10.4 0.00 0.00 0.00 29 1011.7
20240417211004 65 244 3.5 10.4 0.00 0.00 0.00 30 1011.8
20240417210504 66 355 4.3 10.4 0.00 0.00 0.00 28 1011.8
20240417210003 67 36 1.7 8.7 0.00 0.00 0.00 28 1011.9
20240417205503 66 338 4.3 9.6 0.00 0.00 0.00 28 1011.9
20240417205002 66 318 6.1 12.2 0.00 0.00 0.00 27 1012.0
20240417204501 66 11 7.0 12.2 0.00 0.00 0.00 29 1012.1
20240417204101 66 5 4.3 12.2 0.00 0.00 0.00 28 1012.1
20240417203600 65 325 4.3 11.3 0.00 0.00 0.00 29 1012.2
20240417203105 66 312 6.1 12.2 0.00 0.00 0.00 29 1012.1
20240417202559 65 5 3.5 9.6 0.00 0.00 0.00 29 1012.2
20240417202059 65 343 3.5 11.3 0.00 0.00 0.00 29 1012.2
20240417201559 65 334 5.2 11.3 0.00 0.00 0.00 29 1012.2
20240417201058 66 332 4.3 11.3 0.00 0.00 0.00 29 1012.2
20240417200558 65 13 5.2 8.7 0.00 0.00 0.00 29 1012.3
20240417200100 66 302 2.6 11.3 0.00 0.00 0.00 28 1012.3
20240417195557 66 350 4.3 11.3 0.00 0.00 0.00 28 1012.3
20240417195055 65 333 3.5 9.6 0.00 0.00 0.00 29 1012.4
20240417194604 63 20 3.5 11.3 0.00 0.00 0.00 32 1012.4
20240417194053 63 351 4.3 11.3 0.00 0.00 0.00 32 1012.5
20240417193552 62 5 3.5 9.6 0.00 0.00 0.00 32 1012.6
20240417193052 62 297 4.3 11.3 0.00 0.00 0.00 34 1012.7
20240417192553 63 239 4.3 11.3 0.00 0.00 0.00 32 1012.8
20240417192053 63 331 4.3 10.4 0.00 0.00 0.00 31 1012.8
20240417191604 62 321 4.3 9.6 0.00 0.00 0.00 33 1012.9
20240417191051 62 317 5.2 11.3 0.00 0.00 0.00 33 1013.0
20240417190550 61 344 5.2 11.3 0.00 0.00 0.00 34 1013.0
20240417190056 61 284 5.2 11.3 0.00 0.00 0.00 34 1013.1
20240417185549 60 330 7.0 12.2 0.00 0.00 0.00 35 1013.2
20240417185050 61 299 6.1 12.2 0.00 0.00 0.00 35 1013.3
20240417184607 61 333 5.2 11.3 0.00 0.00 0.00 34 1013.3
20240417184049 61 296 4.3 9.6 0.00 0.00 0.00 34 1013.4
20240417183550 61 325 4.3 10.4 0.00 0.00 0.00 35 1013.5
20240417183101 61 30 5.2 10.4 0.00 0.00 0.00 33 1013.5
20240417182548 60 337 3.5 13.0 0.00 0.00 0.00 35 1013.5
20240417182048 59 288 7.0 13.0 0.00 0.00 0.00 36 1013.6
20240417181558 58 325 5.2 11.3 0.00 0.00 0.00 37 1013.5
20240417181047 58 268 4.3 11.3 0.00 0.00 0.00 37 1013.5
20240417180547 58 250 2.6 11.3 0.00 0.00 0.00 36 1013.4
20240417180048 59 273 7.0 11.3 0.00 0.00 0.00 35 1013.5
20240417175546 59 317 5.2 11.3 0.00 0.00 0.00 35 1013.5
20240417175046 58 19 5.2 10.4 0.00 0.00 0.00 37 1013.6
20240417174549 59 360 4.3 10.4 0.00 0.00 0.00 35 1013.6
20240417174044 59 327 2.6 8.7 0.00 0.00 0.00 36 1013.6
20240417173543 58 13 3.5 13.0 0.00 0.00 0.00 40 1013.6
20240417173043 58 256 4.3 13.0 0.00 0.00 0.00 39 1013.7
20240417172542 58 325 3.5 7.8 0.00 0.00 0.00 38 1013.8
20240417172041 56 329 4.3 8.7 0.00 0.00 0.00 41 1013.8
20240417171549 56 310 4.3 11.3 0.00 0.00 0.00 40 1013.7
20240417171039 57 5 7.0 11.3 0.00 0.00 0.00 40 1013.7
20240417170540 57 244 2.6 8.7 0.00 0.00 0.00 40 1013.6
20240417170038 56 5 5.2 8.7 0.00 0.00 0.00 41 1013.6
20240417165537 55 281 4.3 9.6 0.00 0.00 0.00 42 1013.5
20240417165039 54 334 4.3 9.6 0.00 0.00 0.00 44 1013.5
20240417164537 54 293 3.5 10.4 0.00 0.00 0.00 43 1013.5
20240417164035 54 307 5.2 10.4 0.00 0.00 0.00 44 1013.5
20240417163535 55 281 4.3 8.7 0.00 0.00 0.00 44 1013.6
20240417163034 54 311 2.6 8.7 0.00 0.00 0.00 46 1013.5
20240417162535 55 285 4.3 8.7 0.00 0.00 0.00 46 1013.5
20240417162034 55 339 4.3 8.7 0.00 0.00 0.00 45 1013.5